Year,Month,Day,Hour,Minute,Value (Times are PST for windspeed in km/hr)
2015,12,07,00,00,21.00
2015,12,07,00,01,14.50
2015,12,07,00,02,17.30
2015,12,07,00,03,17.60
2015,12,07,00,04,17.70
2015,12,07,00,05,19.90
2015,12,07,00,06,12.80
2015,12,07,00,07,11.10
2015,12,07,00,08,13.70
2015,12,07,00,09,13.50
2015,12,07,00,10,15.60
2015,12,07,00,11,11.60
2015,12,07,00,12,10.30
2015,12,07,00,13,9.40
2015,12,07,00,14,11.60
2015,12,07,00,15,14.00
2015,12,07,00,16,16.10
2015,12,07,00,17,8.50
2015,12,07,00,18,6.40
2015,12,07,00,19,8.20
2015,12,07,00,20,5.90
2015,12,07,00,21,7.90
2015,12,07,00,22,3.60
2015,12,07,00,23,3.90
2015,12,07,00,24,1.10
2015,12,07,00,25,0.30
2015,12,07,00,26,1.80
2015,12,07,00,27,0.80
2015,12,07,00,28,0.00
2015,12,07,00,29,0.00
2015,12,07,00,30,2.20
2015,12,07,00,31,1.30
2015,12,07,00,32,0.00
2015,12,07,00,33,0.60
2015,12,07,00,34,2.30
2015,12,07,00,35,2.30
2015,12,07,00,36,0.30
2015,12,07,00,37,2.40
2015,12,07,00,38,4.00
2015,12,07,00,39,1.20
2015,12,07,00,40,4.80
2015,12,07,00,41,3.40
2015,12,07,00,42,4.10
2015,12,07,00,43,1.80
2015,12,07,00,44,2.30
2015,12,07,00,45,0.10
2015,12,07,00,46,0.00
2015,12,07,00,47,2.60
2015,12,07,00,48,3.00
2015,12,07,00,49,2.40
2015,12,07,00,50,2.70
2015,12,07,00,51,2.30
2015,12,07,00,52,2.30
2015,12,07,00,53,1.40
2015,12,07,00,54,1.70
2015,12,07,00,55,3.70
2015,12,07,00,56,2.50
2015,12,07,00,57,3.20
2015,12,07,00,58,3.60
2015,12,07,00,59,3.60
2015,12,07,01,00,4.40
2015,12,07,01,01,3.60
2015,12,07,01,02,2.90
2015,12,07,01,03,3.20
2015,12,07,01,04,1.20
2015,12,07,01,05,1.10
2015,12,07,01,06,3.60
2015,12,07,01,07,3.40
2015,12,07,01,08,2.90
2015,12,07,01,09,3.30
2015,12,07,01,10,4.30
2015,12,07,01,11,1.00
2015,12,07,01,12,0.30
2015,12,07,01,13,1.90
2015,12,07,01,14,1.60
2015,12,07,01,15,0.10
2015,12,07,01,16,0.50
2015,12,07,01,17,3.60
2015,12,07,01,18,3.80
2015,12,07,01,19,3.20
2015,12,07,01,20,2.80
2015,12,07,01,21,2.20
2015,12,07,01,22,3.00
2015,12,07,01,23,2.90
2015,12,07,01,24,2.30
2015,12,07,01,25,3.30
2015,12,07,01,26,3.80
2015,12,07,01,27,3.40
2015,12,07,01,28,2.30
2015,12,07,01,29,3.60
2015,12,07,01,30,3.50
2015,12,07,01,31,4.40
2015,12,07,01,32,4.30
2015,12,07,01,33,4.00
2015,12,07,01,34,2.80
2015,12,07,01,35,3.40
2015,12,07,01,36,4.80
2015,12,07,01,37,4.20
2015,12,07,01,38,4.50
2015,12,07,01,39,4.20
2015,12,07,01,40,3.40
2015,12,07,01,41,3.50
2015,12,07,01,42,3.90
2015,12,07,01,43,2.70
2015,12,07,01,44,1.40
2015,12,07,01,45,1.50
2015,12,07,01,46,1.70
2015,12,07,01,47,0.50
2015,12,07,01,48,0.60
2015,12,07,01,49,1.00
2015,12,07,01,50,1.40
2015,12,07,01,51,2.60
2015,12,07,01,52,0.80
2015,12,07,01,53,0.20
2015,12,07,01,54,3.20
2015,12,07,01,55,4.70
2015,12,07,01,56,4.50
2015,12,07,01,57,5.00
2015,12,07,01,58,3.90
2015,12,07,01,59,4.80
2015,12,07,02,00,6.10
2015,12,07,02,01,6.00
2015,12,07,02,02,5.80
2015,12,07,02,03,4.10
2015,12,07,02,04,2.90
2015,12,07,02,05,2.80
2015,12,07,02,06,1.60
2015,12,07,02,07,2.20
2015,12,07,02,08,0.00
2015,12,07,02,09,0.20
2015,12,07,02,10,1.60
2015,12,07,02,11,0.60
2015,12,07,02,12,0.00
2015,12,07,02,13,0.00
2015,12,07,02,14,0.00
2015,12,07,02,15,0.00
2015,12,07,02,16,2.30
2015,12,07,02,17,4.20
2015,12,07,02,18,3.30
2015,12,07,02,19,2.10
2015,12,07,02,20,1.10
2015,12,07,02,21,3.10
2015,12,07,02,22,1.90
2015,12,07,02,23,0.80
2015,12,07,02,24,0.00
2015,12,07,02,25,0.00
2015,12,07,02,26,0.40
2015,12,07,02,27,3.40
2015,12,07,02,28,4.50
2015,12,07,02,29,4.30
2015,12,07,02,30,2.60
2015,12,07,02,31,2.50
2015,12,07,02,32,2.20
2015,12,07,02,33,2.40
2015,12,07,02,34,3.00
2015,12,07,02,35,1.90
2015,12,07,02,36,1.60
2015,12,07,02,37,2.10
2015,12,07,02,38,2.70
2015,12,07,02,39,2.10
2015,12,07,02,40,2.70
2015,12,07,02,41,2.60
2015,12,07,02,42,3.00
2015,12,07,02,43,3.00
2015,12,07,02,44,3.30
2015,12,07,02,45,3.30
2015,12,07,02,46,3.10
2015,12,07,02,47,2.90
2015,12,07,02,48,2.40
2015,12,07,02,49,3.10
2015,12,07,02,50,4.00
2015,12,07,02,51,4.50
2015,12,07,02,52,4.90
2015,12,07,02,53,5.80
2015,12,07,02,54,4.00
2015,12,07,02,55,2.70
2015,12,07,02,56,0.70
2015,12,07,02,57,0.00
2015,12,07,02,58,2.40
2015,12,07,02,59,2.10
2015,12,07,03,00,2.70
2015,12,07,03,01,3.00
2015,12,07,03,02,2.10
2015,12,07,03,03,3.40
2015,12,07,03,04,2.00
2015,12,07,03,05,1.00
2015,12,07,03,06,1.10
2015,12,07,03,07,0.80
2015,12,07,03,08,0.40
2015,12,07,03,09,0.30
2015,12,07,03,10,0.10
2015,12,07,03,11,0.00
2015,12,07,03,12,0.00
2015,12,07,03,13,0.80
2015,12,07,03,14,0.60
2015,12,07,03,15,2.60
2015,12,07,03,16,1.50
2015,12,07,03,17,0.40
2015,12,07,03,18,1.90
2015,12,07,03,19,0.40
2015,12,07,03,20,1.10
2015,12,07,03,21,4.50
2015,12,07,03,22,4.40
2015,12,07,03,23,2.00
2015,12,07,03,24,3.90
2015,12,07,03,25,3.00
2015,12,07,03,26,0.70
2015,12,07,03,27,0.30
2015,12,07,03,28,0.20
2015,12,07,03,29,0.00
2015,12,07,03,30,1.30
2015,12,07,03,31,1.00
2015,12,07,03,32,1.40
2015,12,07,03,33,1.70
2015,12,07,03,34,2.70
2015,12,07,03,35,3.00
2015,12,07,03,36,1.10
2015,12,07,03,37,2.10
2015,12,07,03,38,2.10
2015,12,07,03,39,0.30
2015,12,07,03,40,0.10
2015,12,07,03,41,0.40
2015,12,07,03,42,1.60
2015,12,07,03,43,1.30
2015,12,07,03,44,1.60
2015,12,07,03,45,1.40
2015,12,07,03,46,2.00
2015,12,07,03,47,0.10
2015,12,07,03,48,0.00
2015,12,07,03,49,0.00
2015,12,07,03,50,0.00
2015,12,07,03,51,0.00
2015,12,07,03,52,0.00
2015,12,07,03,53,0.00
2015,12,07,03,54,0.00
2015,12,07,03,55,0.00
2015,12,07,03,56,0.00
2015,12,07,03,57,0.00
2015,12,07,03,58,0.10
2015,12,07,03,59,1.60
2015,12,07,04,00,1.80
2015,12,07,04,01,1.70
2015,12,07,04,02,0.30
2015,12,07,04,03,0.00
2015,12,07,04,04,0.00
2015,12,07,04,05,0.10
2015,12,07,04,06,2.40
2015,12,07,04,07,4.50
2015,12,07,04,08,5.60
2015,12,07,04,09,4.50
2015,12,07,04,10,4.60
2015,12,07,04,11,1.70
2015,12,07,04,12,2.00
2015,12,07,04,13,0.40
2015,12,07,04,14,0.20
2015,12,07,04,15,0.10
2015,12,07,04,16,0.50
2015,12,07,04,17,0.00
2015,12,07,04,18,0.00
2015,12,07,04,19,0.00
2015,12,07,04,20,1.00
2015,12,07,04,21,2.40
2015,12,07,04,22,2.10
2015,12,07,04,23,2.30
2015,12,07,04,24,1.60
2015,12,07,04,25,1.90
2015,12,07,04,26,2.30
2015,12,07,04,27,2.00
2015,12,07,04,28,1.70
2015,12,07,04,29,1.00
2015,12,07,04,30,0.70
2015,12,07,04,31,0.50
2015,12,07,04,32,0.40
2015,12,07,04,33,0.00
2015,12,07,04,34,0.00
2015,12,07,04,35,0.20
2015,12,07,04,36,1.30
2015,12,07,04,37,1.10
2015,12,07,04,38,1.00
2015,12,07,04,39,1.30
2015,12,07,04,40,0.70
2015,12,07,04,41,0.40
2015,12,07,04,42,0.00
2015,12,07,04,43,0.20
2015,12,07,04,44,0.00
2015,12,07,04,45,0.40
2015,12,07,04,46,1.20
2015,12,07,04,47,0.50
2015,12,07,04,48,0.00
2015,12,07,04,49,0.70
2015,12,07,04,50,2.30
2015,12,07,04,51,2.80
2015,12,07,04,52,2.40
2015,12,07,04,53,2.30
2015,12,07,04,54,1.40
2015,12,07,04,55,1.70
2015,12,07,04,56,1.90
2015,12,07,04,57,0.40
2015,12,07,04,58,0.00
2015,12,07,04,59,0.30
2015,12,07,05,00,2.40
2015,12,07,05,01,2.10
2015,12,07,05,02,3.00
2015,12,07,05,03,3.00
2015,12,07,05,04,3.70
2015,12,07,05,05,2.60
2015,12,07,05,06,1.40
2015,12,07,05,07,0.00
2015,12,07,05,08,0.40
2015,12,07,05,09,0.90
2015,12,07,05,10,1.10
2015,12,07,05,11,1.60
2015,12,07,05,12,1.40
2015,12,07,05,13,1.00
2015,12,07,05,14,0.50
2015,12,07,05,15,1.30
2015,12,07,05,16,0.60
2015,12,07,05,17,0.00
2015,12,07,05,18,1.80
2015,12,07,05,19,2.70
2015,12,07,05,20,2.90
2015,12,07,05,21,3.40
2015,12,07,05,22,1.90
2015,12,07,05,23,1.60
2015,12,07,05,24,1.60
2015,12,07,05,25,2.30
2015,12,07,05,26,3.00
2015,12,07,05,27,4.30
2015,12,07,05,28,4.00
2015,12,07,05,29,4.80
2015,12,07,05,30,4.60
2015,12,07,05,31,3.10
2015,12,07,05,32,2.30
2015,12,07,05,33,4.80
2015,12,07,05,34,4.50
2015,12,07,05,35,2.80
2015,12,07,05,36,1.70
2015,12,07,05,37,0.80
2015,12,07,05,38,3.30
2015,12,07,05,39,2.60
2015,12,07,05,40,3.30
2015,12,07,05,41,1.60
2015,12,07,05,42,3.60
2015,12,07,05,43,5.40
2015,12,07,05,44,5.20
2015,12,07,05,45,3.90
2015,12,07,05,46,2.90
2015,12,07,05,47,2.70
2015,12,07,05,48,1.90
2015,12,07,05,49,2.00
2015,12,07,05,50,2.90
2015,12,07,05,51,4.20
2015,12,07,05,52,7.00
2015,12,07,05,53,7.20
2015,12,07,05,54,7.80
2015,12,07,05,55,8.00
2015,12,07,05,56,5.70
2015,12,07,05,57,5.80
2015,12,07,05,58,5.40
2015,12,07,05,59,3.60
2015,12,07,06,00,5.50
2015,12,07,06,01,6.40
2015,12,07,06,02,7.50
2015,12,07,06,03,6.90
2015,12,07,06,04,5.60
2015,12,07,06,05,4.90
2015,12,07,06,06,3.50
2015,12,07,06,07,1.30
2015,12,07,06,08,2.10
2015,12,07,06,09,2.00
2015,12,07,06,10,1.80
2015,12,07,06,11,2.10
2015,12,07,06,12,0.90
2015,12,07,06,13,1.70
2015,12,07,06,14,0.50
2015,12,07,06,15,0.20
2015,12,07,06,16,3.60
2015,12,07,06,17,3.90
2015,12,07,06,18,5.10
2015,12,07,06,19,5.30
2015,12,07,06,20,5.90
2015,12,07,06,21,5.50
2015,12,07,06,22,2.70
2015,12,07,06,23,2.30
2015,12,07,06,24,2.90
2015,12,07,06,25,5.70
2015,12,07,06,26,6.10
2015,12,07,06,27,4.50
2015,12,07,06,28,4.90
2015,12,07,06,29,5.50
2015,12,07,06,30,6.20
2015,12,07,06,31,4.50
2015,12,07,06,32,5.00
2015,12,07,06,33,4.10
2015,12,07,06,34,3.50
2015,12,07,06,35,3.40
2015,12,07,06,36,3.20
2015,12,07,06,37,4.20
2015,12,07,06,38,2.70
2015,12,07,06,39,4.10
2015,12,07,06,40,2.40
2015,12,07,06,41,2.00
2015,12,07,06,42,1.30
2015,12,07,06,43,1.70
2015,12,07,06,44,2.40
2015,12,07,06,45,2.00
2015,12,07,06,46,3.60
2015,12,07,06,47,2.20
2015,12,07,06,48,2.00
2015,12,07,06,49,3.10
2015,12,07,06,50,1.70
2015,12,07,06,51,1.60
2015,12,07,06,52,3.50
2015,12,07,06,53,3.10
2015,12,07,06,54,3.60
2015,12,07,06,55,3.10
2015,12,07,06,56,3.10
2015,12,07,06,57,2.90
2015,12,07,06,58,1.40
2015,12,07,06,59,0.30
2015,12,07,07,00,0.60
2015,12,07,07,01,0.10
2015,12,07,07,02,0.00
2015,12,07,07,03,0.80
2015,12,07,07,04,1.90
2015,12,07,07,05,0.70
2015,12,07,07,06,1.90
2015,12,07,07,07,0.70
2015,12,07,07,08,0.00
2015,12,07,07,09,0.00
2015,12,07,07,10,0.80
2015,12,07,07,11,0.50
2015,12,07,07,12,3.00
2015,12,07,07,13,3.20
2015,12,07,07,14,0.20
2015,12,07,07,15,0.60
2015,12,07,07,16,1.30
2015,12,07,07,17,2.30
2015,12,07,07,18,1.60
2015,12,07,07,19,0.80
2015,12,07,07,20,0.00
2015,12,07,07,21,0.00
2015,12,07,07,22,0.10
2015,12,07,07,23,0.30
2015,12,07,07,24,2.00
2015,12,07,07,25,1.70
2015,12,07,07,26,0.00
2015,12,07,07,27,1.80
2015,12,07,07,28,4.30
2015,12,07,07,29,5.40
2015,12,07,07,30,5.40
2015,12,07,07,31,5.20
2015,12,07,07,32,5.20
2015,12,07,07,33,5.10
2015,12,07,07,34,5.60
2015,12,07,07,35,2.90
2015,12,07,07,36,2.10
2015,12,07,07,37,3.20
2015,12,07,07,38,2.90
2015,12,07,07,39,2.60
2015,12,07,07,40,4.50
2015,12,07,07,41,2.10
2015,12,07,07,42,3.60
2015,12,07,07,43,2.60
2015,12,07,07,44,1.40
2015,12,07,07,45,3.30
2015,12,07,07,46,2.40
2015,12,07,07,47,2.90
2015,12,07,07,48,0.70
2015,12,07,07,49,0.60
2015,12,07,07,50,0.40
2015,12,07,07,51,0.20
2015,12,07,07,52,2.10
2015,12,07,07,53,2.80
2015,12,07,07,54,2.00
2015,12,07,07,55,1.40
2015,12,07,07,56,1.10
2015,12,07,07,57,0.50
2015,12,07,07,58,0.00
2015,12,07,07,59,1.40
2015,12,07,08,00,2.40
2015,12,07,08,01,3.30
2015,12,07,08,02,4.40
2015,12,07,08,03,4.20
2015,12,07,08,04,3.20
2015,12,07,08,05,2.40
2015,12,07,08,06,2.70
2015,12,07,08,07,1.80
2015,12,07,08,08,2.50
2015,12,07,08,09,2.70
2015,12,07,08,10,2.90
2015,12,07,08,11,2.50
2015,12,07,08,12,3.20
2015,12,07,08,13,3.50
2015,12,07,08,14,6.90
2015,12,07,08,15,8.60
2015,12,07,08,16,6.70
2015,12,07,08,17,5.50
2015,12,07,08,18,5.30
2015,12,07,08,19,3.10
2015,12,07,08,20,4.10
2015,12,07,08,21,1.80
2015,12,07,08,22,2.90
2015,12,07,08,23,2.10
2015,12,07,08,24,3.00
2015,12,07,08,25,3.90
2015,12,07,08,26,4.20
2015,12,07,08,27,3.90
2015,12,07,08,28,4.50
2015,12,07,08,29,5.10
2015,12,07,08,30,5.50
2015,12,07,08,31,5.80
2015,12,07,08,32,6.00
2015,12,07,08,33,5.60
2015,12,07,08,34,6.30
2015,12,07,08,35,5.20
2015,12,07,08,36,4.00
2015,12,07,08,37,1.60
2015,12,07,08,38,2.60
2015,12,07,08,39,0.40
2015,12,07,08,40,0.50
2015,12,07,08,41,1.60
2015,12,07,08,42,1.90
2015,12,07,08,43,1.10
2015,12,07,08,44,2.10
2015,12,07,08,45,1.30
2015,12,07,08,46,2.10
2015,12,07,08,47,2.50
2015,12,07,08,48,3.90
2015,12,07,08,49,4.10
2015,12,07,08,50,4.00
2015,12,07,08,51,2.50
2015,12,07,08,52,1.70
2015,12,07,08,53,0.90
2015,12,07,08,54,1.20
2015,12,07,08,55,1.40
2015,12,07,08,56,1.60
2015,12,07,08,57,3.10
2015,12,07,08,58,1.80
2015,12,07,08,59,0.80
2015,12,07,09,00,2.50
2015,12,07,09,01,0.90
2015,12,07,09,02,2.70
2015,12,07,09,03,2.90
2015,12,07,09,04,2.70
2015,12,07,09,05,2.90
2015,12,07,09,06,3.50
2015,12,07,09,07,2.30
2015,12,07,09,08,4.00
2015,12,07,09,09,3.90
2015,12,07,09,10,2.30
2015,12,07,09,11,2.90
2015,12,07,09,12,3.40
2015,12,07,09,13,2.20
2015,12,07,09,14,3.00
2015,12,07,09,15,1.80
2015,12,07,09,16,1.20
2015,12,07,09,17,2.30
2015,12,07,09,18,1.10
2015,12,07,09,19,2.10
2015,12,07,09,20,1.70
2015,12,07,09,21,3.10
2015,12,07,09,22,5.20
2015,12,07,09,23,5.30
2015,12,07,09,24,6.00
2015,12,07,09,25,4.80
2015,12,07,09,26,3.60
2015,12,07,09,27,5.60
2015,12,07,09,28,3.40
2015,12,07,09,29,2.00
2015,12,07,09,30,2.30
2015,12,07,09,31,4.50
2015,12,07,09,32,4.80
2015,12,07,09,33,5.10
2015,12,07,09,34,6.10
2015,12,07,09,35,6.00
2015,12,07,09,36,5.50
2015,12,07,09,37,5.60
2015,12,07,09,38,4.90
2015,12,07,09,39,4.60
2015,12,07,09,40,4.00
2015,12,07,09,41,4.20
2015,12,07,09,42,3.20
2015,12,07,09,43,3.90
2015,12,07,09,44,3.40
2015,12,07,09,45,3.10
2015,12,07,09,46,1.00
2015,12,07,09,47,0.70
2015,12,07,09,48,1.10
2015,12,07,09,49,3.70
2015,12,07,09,50,1.10
2015,12,07,09,51,0.80
2015,12,07,09,52,1.00
2015,12,07,09,53,0.10
2015,12,07,09,54,0.00
2015,12,07,09,55,0.00
2015,12,07,09,56,0.80
2015,12,07,09,57,1.80
2015,12,07,09,58,1.30
2015,12,07,09,59,1.00
2015,12,07,10,00,1.70
2015,12,07,10,01,1.60
2015,12,07,10,02,1.40
2015,12,07,10,03,1.70
2015,12,07,10,04,3.00
2015,12,07,10,05,1.90
2015,12,07,10,06,1.30
2015,12,07,10,07,0.90
2015,12,07,10,08,1.60
2015,12,07,10,09,1.70
2015,12,07,10,10,2.70
2015,12,07,10,11,3.60
2015,12,07,10,12,4.40
2015,12,07,10,13,4.80
2015,12,07,10,14,1.90
2015,12,07,10,15,1.00
2015,12,07,10,16,3.10
2015,12,07,10,17,2.00
2015,12,07,10,18,1.30
2015,12,07,10,19,1.10
2015,12,07,10,20,2.10
2015,12,07,10,21,0.70
2015,12,07,10,22,0.20
2015,12,07,10,23,3.20
2015,12,07,10,24,0.40
2015,12,07,10,25,1.70
2015,12,07,10,26,0.90
2015,12,07,10,27,3.80
2015,12,07,10,28,0.40
2015,12,07,10,29,0.10
2015,12,07,10,30,0.00
2015,12,07,10,31,0.10
2015,12,07,10,32,0.50
2015,12,07,10,33,3.90
2015,12,07,10,34,10.60
2015,12,07,10,35,10.60
2015,12,07,10,36,6.30
2015,12,07,10,37,5.40
2015,12,07,10,38,7.80
2015,12,07,10,39,6.20
2015,12,07,10,40,10.00
2015,12,07,10,41,9.90
2015,12,07,10,42,11.40
2015,12,07,10,43,11.50
2015,12,07,10,44,7.60
2015,12,07,10,45,8.00
2015,12,07,10,46,7.60
2015,12,07,10,47,8.40
2015,12,07,10,48,9.40
2015,12,07,10,49,8.00
2015,12,07,10,50,6.00
2015,12,07,10,51,9.30
2015,12,07,10,52,5.90
2015,12,07,10,53,6.90
2015,12,07,10,54,7.80
2015,12,07,10,55,6.60
2015,12,07,10,56,5.00
2015,12,07,10,57,5.50
2015,12,07,10,58,6.00
2015,12,07,10,59,6.70
2015,12,07,11,00,4.90
2015,12,07,11,01,6.10
2015,12,07,11,02,6.10
2015,12,07,11,03,4.80
2015,12,07,11,04,11.70
2015,12,07,11,05,10.40
2015,12,07,11,06,10.40
2015,12,07,11,07,15.40
2015,12,07,11,08,15.40
2015,12,07,11,09,9.50
2015,12,07,11,10,13.30
2015,12,07,11,11,11.70
2015,12,07,11,12,8.30
2015,12,07,11,13,10.70
2015,12,07,11,14,6.00
2015,12,07,11,15,11.60
2015,12,07,11,16,13.90
2015,12,07,11,17,9.20
2015,12,07,11,18,9.60
2015,12,07,11,19,8.50
2015,12,07,11,20,13.90
2015,12,07,11,21,7.70
2015,12,07,11,22,13.60
2015,12,07,11,23,12.80
2015,12,07,11,24,14.70
2015,12,07,11,25,15.20
2015,12,07,11,26,17.80
2015,12,07,11,27,12.60
2015,12,07,11,28,13.60
2015,12,07,11,29,15.40
2015,12,07,11,30,18.10
2015,12,07,11,31,17.40
2015,12,07,11,32,14.10
2015,12,07,11,33,14.80
2015,12,07,11,34,14.70
2015,12,07,11,35,12.90
2015,12,07,11,36,10.00
2015,12,07,11,37,16.50
2015,12,07,11,38,16.60
2015,12,07,11,39,13.20
2015,12,07,11,40,14.30
2015,12,07,11,41,16.50
2015,12,07,11,42,12.00
2015,12,07,11,43,15.40
2015,12,07,11,44,17.00
2015,12,07,11,45,18.00
2015,12,07,11,46,21.40
2015,12,07,11,47,19.70
2015,12,07,11,48,15.30
2015,12,07,11,49,16.90
2015,12,07,11,50,19.70
2015,12,07,11,51,15.50
2015,12,07,11,52,13.90
2015,12,07,11,53,14.20
2015,12,07,11,54,18.40
2015,12,07,11,55,14.70
2015,12,07,11,56,19.20
2015,12,07,11,57,17.30
2015,12,07,11,58,15.30
2015,12,07,11,59,14.80
2015,12,07,12,00,17.00
2015,12,07,12,01,21.00
2015,12,07,12,02,15.10
2015,12,07,12,03,17.50
2015,12,07,12,04,14.80
2015,12,07,12,05,17.80
2015,12,07,12,06,16.10
2015,12,07,12,07,15.70
2015,12,07,12,08,13.10
2015,12,07,12,09,15.20
2015,12,07,12,10,14.40
2015,12,07,12,11,17.80
2015,12,07,12,12,14.30
2015,12,07,12,13,13.60
2015,12,07,12,14,12.80
2015,12,07,12,15,15.00
2015,12,07,12,16,15.20
2015,12,07,12,17,19.00
2015,12,07,12,18,18.70
2015,12,07,12,19,17.60
2015,12,07,12,20,19.00
2015,12,07,12,21,17.20
2015,12,07,12,22,13.60
2015,12,07,12,23,13.70
2015,12,07,12,24,14.80
2015,12,07,12,25,12.50
2015,12,07,12,26,11.40
2015,12,07,12,27,10.10
2015,12,07,12,28,15.00
2015,12,07,12,29,14.20
2015,12,07,12,30,14.60
2015,12,07,12,31,12.00
2015,12,07,12,32,11.80
2015,12,07,12,33,16.60
2015,12,07,12,34,10.40
2015,12,07,12,35,12.30
2015,12,07,12,36,13.90
2015,12,07,12,37,17.50
2015,12,07,12,38,12.50
2015,12,07,12,39,13.00
2015,12,07,12,40,12.50
2015,12,07,12,41,11.50
2015,12,07,12,42,13.40
2015,12,07,12,43,11.70
2015,12,07,12,44,15.30
2015,12,07,12,45,13.30
2015,12,07,12,46,10.90
2015,12,07,12,47,15.20
2015,12,07,12,48,14.40
2015,12,07,12,49,20.40
2015,12,07,12,50,13.10
2015,12,07,12,51,12.40
2015,12,07,12,52,13.20
2015,12,07,12,53,15.40
2015,12,07,12,54,14.50
2015,12,07,12,55,14.10
2015,12,07,12,56,10.80
2015,12,07,12,57,12.80
2015,12,07,12,58,13.90
2015,12,07,12,59,12.20
2015,12,07,13,00,9.20
2015,12,07,13,01,8.00
2015,12,07,13,02,12.50
2015,12,07,13,03,9.40
2015,12,07,13,04,12.40
2015,12,07,13,05,9.20
2015,12,07,13,06,10.40
2015,12,07,13,07,12.60
2015,12,07,13,08,10.20
2015,12,07,13,09,9.00
2015,12,07,13,10,14.50
2015,12,07,13,11,13.20
2015,12,07,13,12,15.80
2015,12,07,13,13,14.40
2015,12,07,13,14,17.40
2015,12,07,13,15,13.80
2015,12,07,13,16,12.20
2015,12,07,13,17,11.60
2015,12,07,13,18,12.70
2015,12,07,13,19,13.50
2015,12,07,13,20,15.40
2015,12,07,13,21,10.40
2015,12,07,13,22,7.50
2015,12,07,13,23,13.50
2015,12,07,13,24,11.20
2015,12,07,13,25,14.40
2015,12,07,13,26,11.20
2015,12,07,13,27,11.20
2015,12,07,13,28,12.00
2015,12,07,13,29,9.60
2015,12,07,13,30,6.40
2015,12,07,13,31,5.70
2015,12,07,13,32,4.80
2015,12,07,13,33,4.60
2015,12,07,13,34,3.70
2015,12,07,13,35,1.20
2015,12,07,13,36,0.10
2015,12,07,13,37,0.50
2015,12,07,13,38,3.90
2015,12,07,13,39,2.50
2015,12,07,13,40,2.20
2015,12,07,13,41,3.50
2015,12,07,13,42,3.80
2015,12,07,13,43,3.90
2015,12,07,13,44,4.50
2015,12,07,13,45,6.40
2015,12,07,13,46,6.50
2015,12,07,13,47,6.30
2015,12,07,13,48,4.80
2015,12,07,13,49,4.80
2015,12,07,13,50,4.50
2015,12,07,13,51,4.30
2015,12,07,13,52,3.00
2015,12,07,13,53,2.90
2015,12,07,13,54,1.70
2015,12,07,13,55,2.60
2015,12,07,13,56,2.60
2015,12,07,13,57,2.10
2015,12,07,13,58,2.30
2015,12,07,13,59,4.50
2015,12,07,14,00,4.60
2015,12,07,14,01,4.80
2015,12,07,14,02,5.20
2015,12,07,14,03,4.50
2015,12,07,14,04,3.20
2015,12,07,14,05,3.10
2015,12,07,14,06,1.90
2015,12,07,14,07,1.70
2015,12,07,14,08,1.50
2015,12,07,14,09,1.30
2015,12,07,14,10,0.40
2015,12,07,14,11,0.10
2015,12,07,14,12,0.10
2015,12,07,14,13,0.10
2015,12,07,14,14,0.00
2015,12,07,14,15,0.70
2015,12,07,14,16,1.60
2015,12,07,14,17,1.10
2015,12,07,14,18,1.00
2015,12,07,14,19,2.40
2015,12,07,14,20,2.50
2015,12,07,14,21,2.50
2015,12,07,14,22,2.90
2015,12,07,14,23,1.00
2015,12,07,14,24,1.60
2015,12,07,14,25,1.90
2015,12,07,14,26,0.40
2015,12,07,14,27,0.10
2015,12,07,14,28,2.00
2015,12,07,14,29,3.60
2015,12,07,14,30,3.20
2015,12,07,14,31,1.40
2015,12,07,14,32,1.60
2015,12,07,14,33,0.60
2015,12,07,14,34,1.20
2015,12,07,14,35,1.70
2015,12,07,14,36,3.90
2015,12,07,14,37,2.90
2015,12,07,14,38,3.00
2015,12,07,14,39,2.30
2015,12,07,14,40,1.30
2015,12,07,14,41,2.10
2015,12,07,14,42,1.60
2015,12,07,14,43,0.40
2015,12,07,14,44,0.70
2015,12,07,14,45,0.50
2015,12,07,14,46,1.10
2015,12,07,14,47,2.50
2015,12,07,14,48,1.00
2015,12,07,14,49,1.70
2015,12,07,14,50,2.30
2015,12,07,14,51,2.70
2015,12,07,14,52,1.80
2015,12,07,14,53,2.30
2015,12,07,14,54,1.70
2015,12,07,14,55,1.90
2015,12,07,14,56,2.60
2015,12,07,14,57,0.70
2015,12,07,14,58,2.40
2015,12,07,14,59,1.80
2015,12,07,15,00,1.00
2015,12,07,15,01,0.20
2015,12,07,15,02,0.00
2015,12,07,15,03,0.20
2015,12,07,15,04,0.00
2015,12,07,15,05,0.00
2015,12,07,15,06,0.00
2015,12,07,15,07,0.00
2015,12,07,15,08,0.10
2015,12,07,15,09,0.00
2015,12,07,15,10,0.00
2015,12,07,15,11,1.00
2015,12,07,15,12,1.70
2015,12,07,15,13,0.40
2015,12,07,15,14,1.50
2015,12,07,15,15,2.90
2015,12,07,15,16,2.40
2015,12,07,15,17,1.80
2015,12,07,15,18,2.60
2015,12,07,15,19,2.30
2015,12,07,15,20,1.70
2015,12,07,15,21,0.10
2015,12,07,15,22,1.00
2015,12,07,15,23,3.00
2015,12,07,15,24,3.00
2015,12,07,15,25,3.80
2015,12,07,15,26,3.10
2015,12,07,15,27,4.10
2015,12,07,15,28,5.60
2015,12,07,15,29,4.90
2015,12,07,15,30,3.70
2015,12,07,15,31,3.90
2015,12,07,15,32,4.60
2015,12,07,15,33,5.10
2015,12,07,15,34,4.30
2015,12,07,15,35,4.30
2015,12,07,15,36,3.80
2015,12,07,15,37,4.40
2015,12,07,15,38,1.80
2015,12,07,15,39,1.60
2015,12,07,15,40,1.40
2015,12,07,15,41,0.70
2015,12,07,15,42,0.40
2015,12,07,15,43,0.00
2015,12,07,15,44,0.00
2015,12,07,15,45,0.00
2015,12,07,15,46,0.20
2015,12,07,15,47,0.20
2015,12,07,15,48,0.10
2015,12,07,15,49,0.90
2015,12,07,15,50,0.80
2015,12,07,15,51,0.20
2015,12,07,15,52,0.00
2015,12,07,15,53,0.00
2015,12,07,15,54,0.00
2015,12,07,15,55,0.00
2015,12,07,15,56,0.00
2015,12,07,15,57,0.00
2015,12,07,15,58,0.00
2015,12,07,15,59,0.00
2015,12,07,16,00,0.00
2015,12,07,16,01,0.00
2015,12,07,16,02,0.00
2015,12,07,16,03,0.00
2015,12,07,16,04,0.00
2015,12,07,16,05,0.00
2015,12,07,16,06,0.00
2015,12,07,16,07,0.00
2015,12,07,16,08,0.00
2015,12,07,16,09,0.00
2015,12,07,16,10,0.00
2015,12,07,16,11,0.00
2015,12,07,16,12,0.00
2015,12,07,16,13,0.00
2015,12,07,16,14,0.00
2015,12,07,16,15,0.00
2015,12,07,16,16,0.00
2015,12,07,16,17,0.00
2015,12,07,16,18,0.00
2015,12,07,16,19,0.00
2015,12,07,16,20,0.00
2015,12,07,16,21,0.00
2015,12,07,16,22,0.00
2015,12,07,16,23,0.00
2015,12,07,16,24,0.00
2015,12,07,16,25,0.00
2015,12,07,16,26,0.00
2015,12,07,16,27,0.00
2015,12,07,16,28,0.00
2015,12,07,16,29,0.00
2015,12,07,16,30,0.00
2015,12,07,16,31,0.00
2015,12,07,16,32,0.00
2015,12,07,16,33,0.00
2015,12,07,16,34,0.00
2015,12,07,16,35,0.00
2015,12,07,16,36,0.00
2015,12,07,16,37,0.00
2015,12,07,16,38,0.00
2015,12,07,16,39,0.00
2015,12,07,16,40,0.00
2015,12,07,16,41,0.80
2015,12,07,16,42,3.40
2015,12,07,16,43,3.60
2015,12,07,16,44,2.70
2015,12,07,16,45,1.80
2015,12,07,16,46,1.40
2015,12,07,16,47,0.80
2015,12,07,16,48,0.70
2015,12,07,16,49,0.30
2015,12,07,16,50,0.50
2015,12,07,16,51,0.00
2015,12,07,16,52,0.30
2015,12,07,16,53,0.40
2015,12,07,16,54,0.00
2015,12,07,16,55,0.00
2015,12,07,16,56,0.00
2015,12,07,16,57,0.00
2015,12,07,16,58,0.00
2015,12,07,16,59,0.00
2015,12,07,17,00,0.40
2015,12,07,17,01,0.40
2015,12,07,17,02,0.50
2015,12,07,17,03,1.70
2015,12,07,17,04,1.70
2015,12,07,17,05,1.80
2015,12,07,17,06,2.60
2015,12,07,17,07,2.30
2015,12,07,17,08,2.10
2015,12,07,17,09,1.70
2015,12,07,17,10,0.20
2015,12,07,17,11,0.00
2015,12,07,17,12,0.00
2015,12,07,17,13,0.00
2015,12,07,17,14,0.00
2015,12,07,17,15,0.00
2015,12,07,17,16,0.00
2015,12,07,17,17,0.00
2015,12,07,17,18,0.00
2015,12,07,17,19,0.00
2015,12,07,17,20,0.00
2015,12,07,17,21,0.00
2015,12,07,17,22,0.20
2015,12,07,17,23,0.00
2015,12,07,17,24,0.10
2015,12,07,17,25,0.20
2015,12,07,17,26,1.70
2015,12,07,17,27,1.90
2015,12,07,17,28,2.30
2015,12,07,17,29,1.70
2015,12,07,17,30,1.70
2015,12,07,17,31,1.80
2015,12,07,17,32,1.80
2015,12,07,17,33,2.90
2015,12,07,17,34,1.80
2015,12,07,17,35,1.00
2015,12,07,17,36,0.40
2015,12,07,17,37,2.40
2015,12,07,17,38,2.80
2015,12,07,17,39,0.80
2015,12,07,17,40,0.00
2015,12,07,17,41,0.00
2015,12,07,17,42,1.20
2015,12,07,17,43,1.00
2015,12,07,17,44,0.50
2015,12,07,17,45,1.40
2015,12,07,17,46,1.70
2015,12,07,17,47,1.50
2015,12,07,17,48,2.30
2015,12,07,17,49,2.10
2015,12,07,17,50,3.60
2015,12,07,17,51,4.10
2015,12,07,17,52,2.70
2015,12,07,17,53,2.30
2015,12,07,17,54,1.80
2015,12,07,17,55,1.30
2015,12,07,17,56,1.00
2015,12,07,17,57,0.40
2015,12,07,17,58,0.00
2015,12,07,17,59,0.00